Weather History for Saginaw Browne, MI

Change the Weather History Date:

Wednesday, May 15, 2013

  Actual Average (KMBS) Record (KMBS)
Temperature  
Mean Temperature 66 °F 57 °F  
Max Temperature 78 °F 68 °F 93 °F (1998)
Min Temperature 53 °F 46 °F 35 °F (2002)
Degree Days  
Heating Degree Days 0    
Month to date heating degree days  
Since 1 July heating degree days  
Cooling Degree Days 0    
Month to date cooling degree days  
Year to date cooling degree days  
Growing Degree Days 16 (Base 50)    
Moisture  
Dew Point 47 °F    
Average Humidity 50    
Maximum Humidity 94    
Minimum Humidity 23    
Precipitation  
Precipitation 0.00 in 0.12 in 0.78 in (1997)
Month to date precipitation 1.64  
Year to date precipitation 9.91  
Snow  
Snow 0.00 in - - ()
Month to date snowfall  
Since 1 July snowfall  
Snow Depth -    
Sea Level Pressure  
Sea Level Pressure 29.68 in    
Wind  
Wind Speed 12 mph (West)    
Max Wind Speed 21 mph    
Max Gust Speed 29 mph    
Visibility 10 miles    
Events Rain    
T = Trace of Precipitation, MM = Missing Value Source: NWS Daily Summary

Daily Weather History Graph

Daily Weather History Graph

Search for Another Location

Airport:

Trip Planner

Search our weather history database for the weather conditions in past years. The results will help you decide how hot, cold, wet, or windy it might be!

Date:

Astronomy

May. 15, 2013 Rise Set
Actual Time 6:10 AM EDT 8:53 PM EDT
Civil Twilight 5:37 AM EDT 9:26 PM EDT
Nautical Twilight 4:56 AM EDT 10:08 PM EDT
Astronomical Twilight 4:08 AM EDT 10:56 PM EDT
Moon 10:47 AM EDT (5/15) 12:38 AM EDT (5/15)
Length of Visible Light 15h 48m
Length of Day
14h 42m
Waxing Crescent, 26% of the Moon is Illuminated
May 15
Waxing Crescent
May 18
First Quarter
May 25
Full
May 31
Last Quarter
Jun 8
New

Hourly Weather History & Observations

Time (EDT) Temp. Dew Point Humidity Pressure Visibility Wind Dir Wind Speed Gust Speed Precip Events Conditions
12:13 AM 55.4 °F 46.4 °F 72% 29.72 in 10.0 mi SSE 9.2 mph - N/A   Mostly Cloudy
12:33 AM 55.4 °F 46.4 °F 72% 29.71 in 10.0 mi SSE 9.2 mph - N/A Rain Light Rain
12:53 AM 53.6 °F 46.4 °F 77% 29.70 in 10.0 mi South 9.2 mph - N/A   Mostly Cloudy
1:13 AM 53.6 °F 46.4 °F 77% 29.68 in 10.0 mi SSE 10.4 mph - N/A   Scattered Clouds
1:33 AM 53.6 °F 46.4 °F 77% 29.66 in 10.0 mi SE 6.9 mph - N/A   Clear
1:53 AM 53.6 °F 48.2 °F 82% 29.65 in 10.0 mi SSE 12.7 mph - N/A   Scattered Clouds
2:13 AM 53.6 °F 50.0 °F 88% 29.61 in 10.0 mi SSE 10.4 mph - N/A   Mostly Cloudy
2:34 AM 53.6 °F 50.0 °F 88% 29.59 in 10.0 mi SSE 10.4 mph - N/A   Mostly Cloudy
2:54 AM 55.4 °F 50.0 °F 82% 29.58 in 10.0 mi SSE 9.2 mph - N/A   Scattered Clouds
3:14 AM 53.6 °F 51.8 °F 94% 29.56 in 10.0 mi South 9.2 mph - N/A   Clear
3:34 AM 55.4 °F 51.8 °F 88% 29.56 in 10.0 mi South 9.2 mph - N/A   Clear
3:54 AM 57.2 °F 51.8 °F 82% 29.55 in 10.0 mi South 10.4 mph - N/A   Clear
4:14 AM 59.0 °F 51.8 °F 77% 29.54 in 10.0 mi South 10.4 mph - N/A   Clear
4:34 AM 59.0 °F 51.8 °F 77% 29.53 in 10.0 mi South 10.4 mph - N/A   Clear
4:55 AM 60.8 °F 53.6 °F 77% 29.52 in 10.0 mi South 11.5 mph - N/A   Clear
5:15 AM 62.6 °F 53.6 °F 72% 29.52 in 10.0 mi SSW 13.8 mph - N/A   Clear
5:35 AM 62.6 °F 55.4 °F 77% 29.51 in 10.0 mi SSW 15.0 mph - N/A   Clear
5:55 AM 64.4 °F 55.4 °F 73% 29.51 in 10.0 mi SW 13.8 mph 21.9 mph N/A   Clear
6:15 AM 64.4 °F 55.4 °F 73% 29.51 in 10.0 mi SW 16.1 mph - N/A   Clear
6:35 AM 64.4 °F 55.4 °F 73% 29.52 in 10.0 mi SW 13.8 mph - N/A   Clear
6:55 AM 64.4 °F 55.4 °F 73% 29.53 in 10.0 mi SW 9.2 mph - N/A   Clear
7:15 AM 64.4 °F 57.2 °F 77% 29.54 in 10.0 mi WSW 12.7 mph 18.4 mph N/A   Clear
7:30 AM 68.0 °F 55.4 °F 64% 29.56 in 10.0 mi West 15.0 mph 18.4 mph N/A   Clear
7:51 AM 68.0 °F 55.4 °F 64% 29.57 in 10.0 mi West 15.0 mph 23.0 mph N/A   Clear
8:11 AM 68.0 °F 53.6 °F 60% 29.58 in 10.0 mi West 16.1 mph 24.2 mph N/A   Clear
8:31 AM 69.8 °F 51.8 °F 53% 29.60 in 10.0 mi West 15.0 mph 24.2 mph N/A   Clear
9:11 AM 69.8 °F 51.8 °F 53% 29.62 in 10.0 mi WNW 13.8 mph 19.6 mph N/A   Clear
9:31 AM 69.8 °F 51.8 °F 53% 29.64 in 10.0 mi West 16.1 mph 21.9 mph N/A   Clear
9:51 AM 71.6 °F 50.0 °F 46% 29.65 in 10.0 mi WNW 16.1 mph 19.6 mph N/A   Clear
10:12 AM 71.6 °F 50.0 °F 46% 29.65 in 10.0 mi WNW 10.4 mph - N/A   Clear
10:32 AM 71.6 °F 50.0 °F 46% 29.66 in 10.0 mi NW 13.8 mph 18.4 mph N/A   Clear
10:52 AM 71.6 °F 50.0 °F 46% 29.67 in 10.0 mi WNW 12.7 mph 19.6 mph N/A   Clear
11:12 AM 73.4 °F 50.0 °F 44% 29.68 in 10.0 mi WNW 12.7 mph 20.7 mph N/A   Clear
11:32 AM 73.4 °F 48.2 °F 41% 29.68 in 10.0 mi West 15.0 mph 24.2 mph N/A   Clear
11:52 AM 73.4 °F 48.2 °F 41% 29.70 in 10.0 mi West 12.7 mph 23.0 mph N/A   Clear
12:12 PM 75.2 °F 50.0 °F 41% 29.71 in 10.0 mi WNW 19.6 mph 25.3 mph N/A   Clear
12:32 PM 75.2 °F 48.2 °F 38% 29.71 in 10.0 mi West 20.7 mph 26.5 mph N/A   Clear
12:52 PM 75.2 °F 50.0 °F 41% 29.72 in 10.0 mi WNW 17.3 mph 24.2 mph N/A   Scattered Clouds
1:12 PM 75.2 °F 48.2 °F 38% 29.73 in 10.0 mi WNW 19.6 mph 28.8 mph N/A   Clear
1:33 PM 77.0 °F 46.4 °F 34% 29.73 in 10.0 mi WNW 19.6 mph 25.3 mph N/A   Clear
1:53 PM 77.0 °F 48.2 °F 36% 29.73 in 10.0 mi WNW 16.1 mph 23.0 mph N/A   Clear
2:13 PM 77.0 °F 46.4 °F 34% 29.74 in 10.0 mi WNW 11.5 mph 21.9 mph N/A   Clear
2:33 PM 77.0 °F 46.4 °F 34% 29.73 in 10.0 mi West 11.5 mph 25.3 mph N/A   Clear
2:53 PM 77.0 °F 46.4 °F 34% 29.73 in 10.0 mi WNW 15.0 mph 19.6 mph N/A   Clear
3:13 PM 78.8 °F 44.6 °F 30% 29.74 in 10.0 mi West 15.0 mph 20.7 mph N/A   Clear
3:33 PM 78.8 °F 42.8 °F 28% 29.74 in 10.0 mi West 17.3 mph 23.0 mph N/A   Clear
3:53 PM 78.8 °F 44.6 °F 30% 29.73 in 10.0 mi West 16.1 mph 19.6 mph N/A   Clear
4:13 PM 78.8 °F 44.6 °F 30% 29.73 in 10.0 mi NW 11.5 mph 19.6 mph N/A   Clear
4:33 PM 78.8 °F 42.8 °F 28% 29.73 in 10.0 mi WNW 9.2 mph - N/A   Clear
4:53 PM 78.8 °F 42.8 °F 28% 29.73 in 10.0 mi NW 9.2 mph - N/A   Clear
5:13 PM 78.8 °F 39.2 °F 24% 29.73 in 10.0 mi NW 12.7 mph - N/A   Clear
5:34 PM 78.8 °F 41.0 °F 26% 29.73 in 10.0 mi West 9.2 mph - N/A   Clear
5:54 PM 78.8 °F 41.0 °F 26% 29.73 in 10.0 mi West 10.4 mph 17.3 mph N/A   Clear
6:14 PM 78.8 °F 39.2 °F 24% 29.73 in 10.0 mi West 16.1 mph - N/A   Clear
6:34 PM 77.0 °F 37.4 °F 24% 29.73 in 10.0 mi WSW 13.8 mph 18.4 mph N/A   Clear
6:54 PM 77.0 °F 39.2 °F 26% 29.73 in 10.0 mi WNW 12.7 mph 17.3 mph N/A   Clear
7:14 PM 75.2 °F 35.6 °F 24% 29.75 in 10.0 mi West 15.0 mph 24.2 mph N/A   Clear
7:34 PM 73.4 °F 33.8 °F 23% 29.75 in 10.0 mi WNW 12.7 mph - N/A   Clear
7:54 PM 73.4 °F 33.8 °F 23% 29.75 in 10.0 mi WNW 10.4 mph - N/A   Scattered Clouds
8:15 PM 71.6 °F 35.6 °F 27% 29.76 in 10.0 mi WNW 9.2 mph - N/A   Scattered Clouds
8:35 PM 71.6 °F 37.4 °F 29% 29.76 in 10.0 mi WNW 10.4 mph - N/A   Clear
8:55 PM 71.6 °F 37.4 °F 29% 29.76 in 10.0 mi WNW 10.4 mph - N/A   Scattered Clouds
9:15 PM 69.8 °F 37.4 °F 31% 29.76 in 10.0 mi NW 8.1 mph 17.3 mph N/A   Scattered Clouds
9:35 PM 69.8 °F 39.2 °F 33% 29.77 in 10.0 mi WNW 8.1 mph - N/A   Clear
9:55 PM 68.0 °F 39.2 °F 35% 29.78 in 10.0 mi West 9.2 mph - N/A   Clear
10:15 PM 66.2 °F 41.0 °F 40% 29.79 in 10.0 mi West 6.9 mph - N/A   Clear
10:35 PM 64.4 °F 41.0 °F 42% 29.79 in 10.0 mi West 6.9 mph - N/A   Clear
10:55 PM 62.6 °F 41.0 °F 45% 29.79 in 10.0 mi West 6.9 mph - N/A   Clear
11:11 PM 62.6 °F 41.0 °F 45% 29.79 in 10.0 mi West 6.9 mph - N/A   Clear
11:31 PM 59.0 °F 41.0 °F 51% 29.79 in 10.0 mi West 5.8 mph - N/A   Clear
11:51 PM 59.0 °F 41.0 °F 51% 29.79 in 10.0 mi West 5.8 mph - N/A   Clear